XM-4 (BLUES) (29520 NORAD) Tracking and Keplerian Element Data

This shows tracking and keplerian element data for the satellite.

Feedback or suggestion? Click here.




ElementValue
Catalog29520
NameXM-4 (BLUES)
Epoch Orbit4258
Epoch Day12.70222571
Epoch Year2024
RAAN94.5536
Inclination0.5222
Eccentricity0.0004354
Argument of Perigee242.2723
Mean Anonmoly268.4916
Mean Motion0.98811361
Decay Rate6.5E-07
L11 29520U 06049A 24012.70222571 .00000065 00000+0 00000+0 0 9991
L22 29520 0.5222 94.5536 0004354 242.2723 268.4916 0.98811361 42583



Live tracking and technical data element details for XM-4 (BLUES) (NORAD 29520). XM-4 (BLUES) can be tracked NOW for your location showing map with azimuth and elevation plus other details from your city location.







IsCatalogInMostPopularTable: catalog: 29520, numindb: 362
Update: records affected: 1



GetName: 29520 XM-4 (BLUES)

Hit Count: updated at: Sat, 24 May 2025 17:07:59 GMT